Regional Weather Roundup
Issued by NWS Green Bay, WI

Home | Current Version | Previous Version | Text Only | Print | Product List | Glossary On
Versions: 1 2 3 4 5 6 7 8 9 10 11 12 13 14 15 16 17 18 19 20 21 22 23 24 25 26 27 28 29 30 31 32 33 34 35 36 37 38 39 40 41 42 43 44 45 46 47 48 49 50
000
ASUS43 KGRB 220410
RWRGRB

NORTH-CENTRAL AND NORTHEAST WISCONSIN REGIONAL WEATHER ROUNDUP
NATIONAL WEATHER SERVICE GREEN BAY WI
1100 PM CDT SUN SEP 21 2014

WIZ005-009-010>012-018-019-220500-
NORTH CENTRAL WISCONSIN

CITY           SKY/WX    TMP DP  RH WIND       PRES   REMARKS
IRONWOOD       CLEAR     39  39 100 SW5       30.15R
MANITOWISH WTR   N/A     35  35 100 CALM      30.16S FOG
ARBOR VITAE    CLEAR     39  37  92 CALM      30.17R
EAGLE RIVER    CLEAR     34  34 100 CALM      30.16R FOG
LAND O LAKES   CLEAR     35  34  99 CALM      30.16S
RHINELANDER    CLEAR     35  35 100 CALM      30.17S FOG
PHILLIPS       CLEAR     39  39 100 CALM      30.18R FOG
ANTIGO         CLEAR     39  37  92 CALM      30.17S
TOMAHAWK       CLEAR     34  33  96 CALM      30.18S
MERRILL        CLEAR     37  36  94 CALM      30.19R
$$

WIZ013-073-220500-
NORTHEAST WISCONSIN

CITY           SKY/WX    TMP DP  RH WIND       PRES   REMARKS
IRON MOUNTAIN  CLEAR     36  33  89 CALM      30.15R
MARINETTE      CLEAR     39  37  93 CALM      30.15S
OCONTO         CLEAR     40  40 100 CALM      30.16S
$$

WIZ017-030-035>037-045-220500-
CENTRAL WISCONSIN

CITY           SKY/WX    TMP DP  RH WIND       PRES   REMARKS
MEDFORD        CLEAR     37  37  99 CALM      30.19S
WAUSAU         CLEAR     43  40  89 NW3       30.18R
MOSINEE        CLEAR     43  41  93 W3        30.20R
MARSHFIELD     CLEAR     43  40  89 NW3       30.19R
WISC RAPIDS    CLEAR     43  41  93 CALM      30.21R
STEVENS POINT  CLEAR     40  38  91 CALM      30.20R
WAUPACA        CLEAR     47  41  81 CALM      30.19R
SHAWANO          N/A     44  41  89 CALM      30.18R
CLINTONVILLE   CLEAR     43  41  93 CALM      30.18R
$$

WIZ038-039-048-051-220500-
FOX VALLEY

CITY           SKY/WX    TMP DP  RH WIND       PRES   REMARKS
NWS GREEN BAY  CLEAR     42  40  92 NW6       30.17R
APPLETON       PTCLDY    45  37  76 NW5       30.18R
OSHKOSH        CLEAR     47  39  74 NW6       30.17R
FOND DU LAC    CLEAR     45  39  79 NW7       30.16S
$$

WIZ022-050-052-220500-
EAST CENTRAL WISCONSIN

CITY           SKY/WX    TMP DP  RH WIND       PRES   REMARKS
STURGEON BAY   PTCLDY    46  39  76 N14       30.16R
MANITOWOC      CLEAR     42  41  96 CALM      30.16R
SHEBOYGAN      CLEAR     44  40  85 NW5       30.15S
$$

LMZ563-521-522-541>543-220500-
LAKESHORE

STATION/POSITION TIME  TEMP    WIND        PRES    VSBY  WAVE
                       AIR SEA DIR/SP/G                  HT/PER
                 (UTC) (F)     (DEG/KT/KT) (MB)    (MI)  (FT/S)
SHEBOYGAN LKSHOR 0400   49 51  340/  6/  7 1021.4F
KEWAUNEE LKSHORE 0400   44     320/  3/  4 1020.1R
NORTHPORT PIER   0400   49     340/ 17/ 20 1020.7S
N MID LAKE BUOY  0400   48 57  340/ 17/ 21 1020.2R         4/ 5
S GREEN BAY BUOY 0400   51     VRB 12/ 17  1022.1R
CHAMBERS ISLAND  0400   49     340/ 16/ 22 1021.0F
MENOMINEE LKSHOR 0400   48     350/  7/  9 1021.8S
$$



USA.gov is the U.S. government's official web portal to all federal, state and local government web resources and services.